Simultaneous Nadir Overpasses (SNOs) Predictions

Prediction of SNOs between GOES-16 and AQUA Satellite Orbit:

Table of predicted SNOs for the next 14.0 days since TLE Epoch: 3/7/2025
Index Date Time (GOES-16) GOES-16 Lat,Lon AQUA Lat,Lon Distance(km) Time Diff (sec)
1 03/08/2025 19:20:41 0.06, -75.24 0.84, -71.73 400.23 80
2 03/09/2025 07:40:01 -0.05, -75.26 0.19, -76.40 129.32 80
3 03/11/2025 07:17:48 -0.04, -75.29 -0.82, -71.61 418.16 80
4 03/11/2025 19:37:18 0.04, -75.28 -0.17, -76.33 118.86 80
5 03/13/2025 19:20:24 0.04, -75.32 0.85, -71.54 430.50 80
6 03/14/2025 07:39:45 -0.03, -75.35 0.15, -76.22 97.92 80
7 03/16/2025 07:17:30 -0.04, -75.40 -0.88, -71.42 452.41 80
8 03/16/2025 19:36:59 0.03, -75.39 -0.13, -76.13 84.18 80
9 03/18/2025 19:20:03 0.03, -75.44 0.92, -71.33 467.33 80
10 03/19/2025 07:39:24 -0.03, -75.48 0.05, -76.02 60.47 80
11 03/21/2025 07:17:06 -0.03, -75.53 -0.94, -71.20 491.70 80
